Location: Newark
(54.3386°S, 169.8415°W)
Time: 04:23:41
(UTC+00:00)

Transit 2A Rocket - Pass Details

Date: 30 October 2019
Orbit: 594 x 909 km, 66.7° (Epoch: 11 November)

Event Time Altitude Azimuth Distance (km) Brightness Sun altitude
Rises 02:20:39 0° 329° (NNW) 3,255 9.0 34.1°
Reaches altitude 10° 02:22:58 10° 331° (NNW) 2,379 8.5 33.8°
Maximum altitude 02:28:28 72° 53° (NE) 900 5.8 33.1°
Drops below altitude 10° 02:34:28 10° 136° (SE) 2,580 7.3 32.3°
Sets 02:37:03 0° 137° (SE) 3,549 8.0 31.9°
